Regional Weather Roundup
Issued by NWS

Home | Current Version | Previous Version | Graphics & Text | Print | Product List | Glossary On
Versions: 1 2 3 4 5 6 7 8 9 10 11 12 13 14 15 16 17 18 19 20 21 22 23 24 25 26 27 28 29 30 31 32 33 34 35 36 37 38 39 40 41 42 43 44 45 46 47 48 49 50
000
ASUS43 KIND 222209
RWRIN

WEATHER ROUNDUP FOR INDIANA
NATIONAL WEATHER SERVICE INDIANAPOLIS IN
600 PM EDT SUN APR 22 2018

NOTE: "FAIR" INDICATES FEW OR NO CLOUDS BELOW 12,000 FEET WITH NO
SIGNIFICANT WEATHER AND/OR OBSTRUCTIONS TO VISIBILITY.

* - STATION DOES NOT REPORT WEATHER SUCH AS PRECIPITATION OR FOG.

+ - STATION NOT QUALITY CONTROLLED BY THE NATIONAL WEATHER SERVICE.
    USE DATA WITH CAUTION...ESPECIALLY DEWPOINT AND RELATIVE
    HUMIDITY OBSERVATIONS.

INZ001>003-010>013-019-020-222300-
NORTHWEST INDIANA

CITY           SKY/WX    TMP DP  RH WIND       PRES   REMARKS
GARY /AIRPORT/ PTSUNNY   54  28  37 NE12G23   30.25F
KNOX *+        FAIR      64  27  24 E16       30.23S
LA PORTE +     FAIR      64  26  23 E14       30.25S
MICHIGAN CITY+ FAIR      59  30  33 NE5       30.25S
MONTICELLO +   FAIR      63  25  24 E9G18     30.20F
RENSSELAER +   FAIR      66   3   8 E16G24    30.21F
VALPARAISO     FAIR      67  25  20 E14G24    30.23F

$$

LMZ046-743>745-222300-
SOUTHERN LAKE MICHIGAN

STATION/POSITION TIME  TEMP    WIND        PRES    WAVE
                       AIR SEA DIR/SP/G            HT
                 (UTC) (F)     (DEG/KT/KT) (MB)    (FT)
BURNS HARBOR     2140   45      80/ 11/ 13 1025.1S
MICHIGAN CITY    2140   43      40/ 11/ 12   N/A

$$

INZ004-005-014>016-021>024-222300-
NORTH CENTRAL INDIANA

CITY           SKY/WX    TMP DP  RH WIND       PRES   REMARKS
ELKHART        FAIR      64  21  19 E12G20    30.25F
GOSHEN         FAIR      62  25  24 E17       30.26S
LOGANSPORT +   FAIR      63  30  29 E16G23    30.22F
PERU/GRISSOM   PTSUNNY   66  21  18 E17G25    30.22F
ROCHESTER +    FAIR      66  25  20 E14G23    30.24S
SOUTH BEND     FAIR      63  22  20 SE14G21   30.26F
WARSAW +       FAIR      63  27  25 E16       30.25S

$$

INZ006>009-017-018-025>027-222300-
NORTHEAST INDIANA

CITY           SKY/WX    TMP DP  RH WIND       PRES   REMARKS
AUBURN +       FAIR      59  23  25 E15       30.28S
FORT WAYNE     PTSUNNY   62  28  27 E18       30.27R
HUNTINGTON +   FAIR      63  26  24 E13G18    30.24F

$$

INZ028-029-035-036-043>045-051>053-222300-
WEST CENTRAL INDIANA

CITY           SKY/WX    TMP DP  RH WIND       PRES   REMARKS
CRAWFORDSVL +  FAIR      63  31  30 E14G23    30.16F
GREENCASTLE +  FAIR      63  28  27 E12       30.16F
LAFAYETTE      FAIR      64  31  28 E15       30.18F
TERRE HAUTE    FAIR      65  35  33 E17G23    30.13F

$$

INZ030>032-037>040-046>048-054>057-064-065-222300-
CENTRAL INDIANA

CITY           SKY/WX    TMP DP  RH WIND       PRES   REMARKS
COLUMBUS       SUNNY     64 N/A N/A E15       30.17F
FISHERS *+     FAIR      63  37  39 E12G17    30.17
FRANKFORT +    FAIR      67  31  25 E16       30.20F
GREENWOOD *+   FAIR      64  28  25 E12       30.17F
INDIANAPOLIS   CLOUDY    65  23  20 E13       30.17S
-EAGLE CREEK   FAIR      66  28  24 E13       30.16F
KOKOMO +       FAIR      64  29  26 E17       30.21F
MARION +       FAIR      62  27  26 E16G22    30.22F
MT COMFORT *+  FAIR      64  37  36 E17       30.18F
SHELBYVILLE    FAIR      68  27  21 E15       30.16F
ZIONSVILLE +   FAIR      63  32  31 NE14G21   30.18F

$$

INZ033-034-041-042-049-050-058-059-222300-
EAST CENTRAL INDIANA

CITY           SKY/WX    TMP DP  RH WIND       PRES   REMARKS
MUNCIE         FAIR      65  28  24 E18       30.21F
RICHMOND +     FAIR      64  30  27 E15       30.20F

$$

INZ060-061-067>069-081>083-085>088-222300-
SOUTHWEST INDIANA

CITY           SKY/WX    TMP DP  RH WIND       PRES   REMARKS
EVANSVILLE     LGT RAIN  63  51  65 SE8       30.07S
HUNTINGBURG +  CLOUDY    67  47  48 SE15      30.08F
WASHINGTON +   PTSUNNY   66  39  36 E15       30.09F

$$

INZ062-063-066-070>080-084-089>092-222300-
SOUTH CENTRAL AND SOUTHEAST INDIANA

CITY           SKY/WX    TMP DP  RH WIND       PRES   REMARKS
BATESVILLE +   SUNNY     61  32  33 MISG      30.17F
BEDFORD +      FAIR      68  30  24 E12       30.12F
BLOOMINGTON    FAIR      66  31  27 E16       30.13F
FRENCH LICK *+ CLOUDY    66  32  28 E12       30.11S
MADISON *+     FAIR      68  21  17 E14G25    30.16F
NORTH VERNON + FAIR      64  34  32 E10       30.16F
SEYMOUR +      FAIR      70  37  30 E13       30.13F

$$





USA.gov is the U.S. government's official web portal to all federal, state and local government web resources and services.